"read_dt","SO2 (ppb)","flags","PMT voltage (V)","lamp voltage (V)","lamp intensity (Hz)","internal temp (C)","react chamber temp (C)","sample flow (l/min)","pres (mmHg)","SO2 bkg (ppb)","SO2 coefficient"
2016-09-15 00:00:00,2012E-3,5C000000,-0723,0823,12301,030.9,045.5,0.454,745.2,01.17,0.508
2016-09-15 00:01:00,1972E-3,5C000000,-0723,0823,12258,031.0,045.5,0.454,745.2,01.17,0.508
2016-09-15 00:02:00,1921E-3,5C000000,-0723,0823,12367,030.9,045.5,0.453,745.2,01.17,0.508
2016-09-15 00:03:00,1926E-3,5C000000,-0723,0823,12297,030.9,045.5,0.453,745.2,01.17,0.508
2016-09-15 00:04:00,1759E-3,5C000000,-0723,0824,12227,030.9,045.5,0.454,745.2,01.17,0.508
2016-09-15 00:05:00,1853E-3,5C000000,-0723,0823,12164,030.9,045.5,0.454,745.2,01.17,0.508
2016-09-15 00:06:00,1852E-3,5C000000,-0723,0824,12251,031.0,045.6,0.453,745.2,01.17,0.508
2016-09-15 00:07:00,1840E-3,5C000000,-0723,0823,12141,031.0,045.6,0.453,745.2,01.17,0.508
2016-09-15 00:08:00,1826E-3,5C000000,-0723,0823,12185,031.0,045.5,0.454,745.2,01.17,0.508
2016-09-15 00:09:00,1858E-3,5C000000,-0723,0824,12349,031.0,045.5,0.453,745.2,01.17,0.508
2016-09-15 00:10:00,2043E-3,5C000000,-0723,0823,12196,031.0,045.5,0.453,745.2,01.17,0.508
2016-09-15 00:11:00,1844E-3,5C000000,-0723,0823,12282,031.0,045.5,0.454,745.2,01.17,0.508
2016-09-15 00:12:00,1903E-3,5C000000,-0723,0824,12234,031.0,045.5,0.454,745.2,01.17,0.508
2016-09-15 00:13:00,1939E-3,5C000000,-0723,0824,12239,031.0,045.5,0.453,745.2,01.17,0.508
2016-09-15 00:14:00,1832E-3,5C000000,-0723,0823,12227,031.0,045.5,0.453,745.2,01.17,0.508
2016-09-15 00:15:00,1957E-3,5C000000,-0723,0823,12182,031.0,045.5,0.454,745.2,01.17,0.508
2016-09-15 00:16:00,1889E-3,5C000000,-0723,0824,12236,031.0,045.5,0.453,745.2,01.17,0.508
2016-09-15 00:17:00,1873E-3,5C000000,-0723,0823,12312,031.0,045.5,0.453,745.2,01.17,0.508
2016-09-15 00:18:00,1937E-3,5C000000,-0723,0824,12262,031.0,045.6,0.454,745.2,01.17,0.508
2016-09-15 00:19:00,1904E-3,5C000000,-0723,0824,12178,031.0,045.5,0.454,745.2,01.17,0.508
2016-09-15 00:20:00,1838E-3,5C000000,-0723,0824,12315,031.0,045.5,0.453,745.2,01.17,0.508
2016-09-15 00:21:00,1814E-3,5C000000,-0723,0824,12337,031.0,045.5,0.453,745.2,01.17,0.508
2016-09-15 00:22:00,1832E-3,5C000000,-0723,0824,12253,031.0,045.5,0.454,745.2,01.17,0.508
2016-09-15 00:23:00,1851E-3,5C000000,-0723,0824,12279,031.0,045.5,0.454,745.2,01.17,0.508
2016-09-15 00:24:00,1860E-3,5C000000,-0723,0824,12393,031.0,045.5,0.453,745.2,01.17,0.508
2016-09-15 00:25:00,1895E-3,5C000000,-0723,0824,12331,031.0,045.5,0.454,745.2,01.17,0.508
2016-09-15 00:26:00,1990E-3,5C000000,-0723,0824,12349,031.0,045.5,0.454,745.2,01.17,0.508
2016-09-15 00:27:00,1869E-3,5C000000,-0723,0823,12102,031.0,045.6,0.453,745.2,01.17,0.508
2016-09-15 00:28:00,1925E-3,5C000000,-0723,0823,12193,031.1,045.6,0.453,745.2,01.17,0.508
2016-09-15 00:29:00,1997E-3,5C000000,-0723,0823,12272,031.0,045.6,0.454,745.2,01.17,0.508
2016-09-15 00:30:00,1832E-3,5C000000,-0723,0824,12251,031.1,045.6,0.453,745.2,01.17,0.508
2016-09-15 00:31:00,2033E-3,5C000000,-0723,0823,12091,031.1,045.5,0.453,745.2,01.17,0.508
2016-09-15 00:32:00,1826E-3,5C000000,-0723,0824,12378,031.1,045.5,0.454,745.2,01.17,0.508
2016-09-15 00:33:00,1934E-3,5C000000,-0723,0824,12150,031.1,045.5,0.454,745.2,01.17,0.508
2016-09-15 00:34:00,1860E-3,5C000000,-0723,0823,12240,031.1,045.5,0.453,745.2,01.17,0.508
2016-09-15 00:35:00,1875E-3,5C000000,-0723,0824,12232,031.1,045.6,0.453,745.2,01.17,0.508
2016-09-15 00:36:00,1886E-3,5C000000,-0723,0823,12100,031.1,045.5,0.454,745.1,01.17,0.508
2016-09-15 00:37:00,1938E-3,5C000000,-0723,0823,12193,031.1,045.5,0.453,745.2,01.17,0.508
2016-09-15 00:38:00,1868E-3,5C000000,-0723,0823,12340,031.1,045.6,0.453,745.2,01.17,0.508
2016-09-15 00:39:00,2009E-3,5C000000,-0723,0823,12241,031.0,045.5,0.453,745.2,01.17,0.508
2016-09-15 00:40:00,1798E-3,5C000000,-0723,0823,12303,031.0,045.5,0.454,745.1,01.17,0.508
2016-09-15 00:41:00,1854E-3,5C000000,-0723,0824,12278,031.0,045.5,0.454,745.1,01.17,0.508
2016-09-15 00:42:00,1879E-3,5C000000,-0723,0823,12164,031.0,045.5,0.453,745.1,01.17,0.508
2016-09-15 00:43:00,1797E-3,5C000000,-0723,0824,12271,031.0,045.5,0.453,745.1,01.17,0.508
2016-09-15 00:44:00,1704E-3,5C000000,-0723,0823,12171,030.9,045.5,0.454,745.0,01.17,0.508
2016-09-15 00:45:00,1836E-3,5C000000,-0723,0823,12205,030.9,045.5,0.453,745.0,01.17,0.508
2016-09-15 00:46:00,1835E-3,5C000000,-0723,0824,12254,031.0,045.5,0.453,745.1,01.17,0.508
2016-09-15 00:47:00,1978E-3,5C000000,-0723,0823,12323,030.9,045.5,0.454,745.0,01.17,0.508
2016-09-15 00:48:00,1877E-3,5C000000,-0723,0824,12216,030.9,045.5,0.453,745.0,01.17,0.508
2016-09-15 00:49:00,1894E-3,5C000000,-0723,0824,12337,030.9,045.5,0.453,745.0,01.17,0.508
2016-09-15 00:50:00,1871E-3,5C000000,-0723,0824,12254,030.9,045.5,0.454,745.1,01.17,0.508
2016-09-15 00:51:00,1944E-3,5C000000,-0723,0824,12344,030.9,045.5,0.453,745.2,01.17,0.508
2016-09-15 00:52:00,1925E-3,5C000000,-0723,0823,12285,030.9,045.5,0.454,745.2,01.17,0.508
2016-09-15 00:53:00,1930E-3,5C000000,-0723,0823,12383,030.9,045.6,0.454,745.2,01.17,0.508
2016-09-15 00:54:00,1866E-3,5C000000,-0723,0824,12033,030.9,045.5,0.453,745.2,01.17,0.508
2016-09-15 00:55:00,1785E-3,5C000000,-0723,0824,12242,030.9,045.5,0.454,745.3,01.17,0.508
2016-09-15 00:56:00,1788E-3,5C000000,-0723,0823,12310,030.9,045.5,0.454,745.2,01.17,0.508
2016-09-15 00:57:00,1930E-3,5C000000,-0723,0824,12162,030.9,045.5,0.453,745.3,01.17,0.508
2016-09-15 00:58:00,1838E-3,5C000000,-0723,0823,12349,030.8,045.5,0.454,745.3,01.17,0.508
2016-09-15 00:59:00,1751E-3,5C000000,-0723,0823,12409,030.8,045.5,0.454,745.2,01.17,0.508
2016-09-15 01:00:00,1946E-3,5C000000,-0723,0823,12321,030.9,045.5,0.453,745.3,01.17,0.508
2016-09-15 01:01:00,1914E-3,5C000000,-0723,0824,12366,030.8,045.5,0.454,745.4,01.17,0.508
2016-09-15 01:02:00,1961E-3,5C000000,-0723,0824,12184,030.9,045.5,0.453,745.3,01.17,0.508
2016-09-15 01:03:00,1912E-3,5C000000,-0723,0823,12388,030.9,045.6,0.454,745.3,01.17,0.508
2016-09-15 01:04:00,1972E-3,5C000000,-0723,0824,12152,030.9,045.5,0.453,745.3,01.17,0.508
2016-09-15 01:05:00,1819E-3,5C000000,-0723,0823,12102,030.9,045.5,0.454,745.3,01.17,0.508
2016-09-15 01:06:00,1848E-3,5C000000,-0723,0823,12438,030.9,045.5,0.453,745.3,01.17,0.508
2016-09-15 01:07:00,1808E-3,5C000000,-0723,0823,12263,030.9,045.5,0.454,745.3,01.17,0.508
2016-09-15 01:08:00,1741E-3,5C000000,-0723,0823,12300,030.9,045.5,0.453,745.3,01.17,0.508
2016-09-15 01:09:00,1913E-3,5C000000,-0723,0824,12296,030.9,045.5,0.454,745.3,01.17,0.508
2016-09-15 01:10:00,1790E-3,5C000000,-0723,0825,12166,030.9,045.5,0.453,745.3,01.17,0.508
2016-09-15 01:11:00,1775E-3,5C000000,-0723,0823,12269,030.9,045.5,0.454,745.3,01.17,0.508
2016-09-15 01:12:00,1905E-3,5C000000,-0723,0824,12161,030.9,045.5,0.454,745.3,01.17,0.508
2016-09-15 01:13:00,1927E-3,5C000000,-0723,0823,12375,030.9,045.5,0.453,745.3,01.17,0.508
2016-09-15 01:14:00,1929E-3,5C000000,-0723,0823,12208,030.9,045.5,0.454,745.3,01.17,0.508
2016-09-15 01:15:00,1932E-3,5C000000,-0723,0824,12286,030.9,045.5,0.453,745.3,01.17,0.508
2016-09-15 01:16:00,1765E-3,5C000000,-0723,0824,12104,030.9,045.6,0.454,745.3,01.17,0.508
2016-09-15 01:17:00,1807E-3,5C000000,-0723,0824,12357,031.0,045.5,0.453,745.3,01.17,0.508
2016-09-15 01:18:00,1905E-3,5C000000,-0723,0824,12259,031.0,045.5,0.454,745.3,01.17,0.508
2016-09-15 01:19:00,1798E-3,5C000000,-0723,0823,12246,031.0,045.5,0.453,745.3,01.17,0.508
2016-09-15 01:20:00,1842E-3,5C000000,-0723,0824,12237,031.1,045.5,0.453,745.2,01.17,0.508
2016-09-15 01:21:00,1963E-3,5C000000,-0723,0823,12277,031.2,045.5,0.453,745.2,01.17,0.508
2016-09-15 01:22:00,1895E-3,5C000000,-0723,0824,12306,031.3,045.5,0.453,745.3,01.17,0.508
2016-09-15 01:23:00,1898E-3,5C000000,-0723,0824,12238,031.3,045.5,0.453,745.3,01.17,0.508
2016-09-15 01:24:00,1867E-3,5C000000,-0723,0824,12101,031.4,045.6,0.453,745.3,01.17,0.508
2016-09-15 01:25:00,1946E-3,5C000000,-0723,0824,12098,031.5,045.6,0.452,745.3,01.17,0.508
2016-09-15 01:26:00,1866E-3,5C000000,-0723,0823,12222,031.6,045.6,0.453,745.3,01.17,0.508
2016-09-15 01:27:00,1874E-3,5C000000,-0723,0824,12247,031.6,045.6,0.452,745.3,01.17,0.508
2016-09-15 01:28:00,1852E-3,5C000000,-0723,0823,12165,031.7,045.6,0.453,745.3,01.17,0.508
2016-09-15 01:29:00,1975E-3,5C000000,-0723,0823,12257,031.7,045.6,0.452,745.3,01.17,0.508
2016-09-15 01:30:00,1954E-3,5C000000,-0723,0824,12341,031.7,045.6,0.452,745.3,01.17,0.508
2016-09-15 01:31:00,1852E-3,5C000000,-0723,0823,12326,031.7,045.6,0.452,745.3,01.17,0.508
2016-09-15 01:32:00,1916E-3,5C000000,-0723,0824,12196,031.8,045.6,0.452,745.2,01.17,0.508
2016-09-15 01:33:00,1819E-3,5C000000,-0723,0823,12133,031.8,045.6,0.452,745.2,01.17,0.508
2016-09-15 01:34:00,1968E-3,5C000000,-0723,0824,12335,031.9,045.6,0.452,745.2,01.17,0.508
2016-09-15 01:35:00,1996E-3,5C000000,-0723,0824,12218,031.9,045.6,0.452,745.2,01.17,0.508
2016-09-15 01:36:00,1963E-3,5C000000,-0723,0824,12277,032.0,045.6,0.452,745.2,01.17,0.508
2016-09-15 01:37:00,1847E-3,5C000000,-0723,0823,12230,032.0,045.6,0.451,745.2,01.17,0.508
2016-09-15 01:38:00,1825E-3,5C000000,-0723,0824,12057,032.0,045.6,0.452,745.1,01.17,0.508
2016-09-15 01:39:00,1975E-3,5C000000,-0723,0824,12125,032.1,045.6,0.451,745.1,01.17,0.508
2016-09-15 01:40:00,1935E-3,5C000000,-0723,0823,12265,032.1,045.6,0.452,745.1,01.17,0.508
2016-09-15 01:41:00,1992E-3,5C000000,-0723,0825,12233,032.2,045.6,0.451,745.0,01.17,0.508
2016-09-15 01:42:00,1997E-3,5C000000,-0723,0824,12233,032.2,045.6,0.451,745.0,01.17,0.508
2016-09-15 01:43:00,1916E-3,5C000000,-0723,0825,12263,032.2,045.6,0.451,745.0,01.17,0.508
2016-09-15 01:44:00,1823E-3,5C000000,-0723,0824,12282,032.3,045.6,0.451,745.1,01.17,0.508
2016-09-15 01:45:00,1993E-3,5C000000,-0723,0824,12241,032.3,045.6,0.450,745.0,01.17,0.508
2016-09-15 01:46:00,1941E-3,5C000000,-0723,0824,12141,032.3,045.6,0.451,745.1,01.17,0.508
2016-09-15 01:47:00,1859E-3,5C000000,-0723,0823,12035,032.3,045.6,0.450,745.0,01.17,0.508
2016-09-15 01:48:00,1903E-3,5C000000,-0723,0824,12230,032.3,045.6,0.451,744.9,01.17,0.508
2016-09-15 01:49:00,1824E-3,5C000000,-0723,0824,12311,032.3,045.6,0.450,745.0,01.17,0.508
2016-09-15 01:50:00,1860E-3,5C000000,-0723,0823,12281,032.3,045.6,0.451,745.0,01.17,0.508
2016-09-15 01:51:00,1887E-3,5C000000,-0723,0824,12264,032.3,045.6,0.450,745.0,01.17,0.508
2016-09-15 01:52:00,1770E-3,5C000000,-0723,0824,12124,032.3,045.6,0.451,744.9,01.17,0.508
2016-09-15 01:53:00,1957E-3,5C000000,-0723,0824,12163,032.3,045.6,0.450,744.9,01.17,0.508
2016-09-15 01:54:00,1908E-3,5C000000,-0723,0824,12315,032.3,045.6,0.450,745.0,01.17,0.508
2016-09-15 01:55:00,1940E-3,5C000000,-0723,0823,12134,032.3,045.6,0.451,745.0,01.17,0.508
2016-09-15 01:56:00,1940E-3,5C000000,-0723,0824,12162,032.3,045.6,0.450,745.0,01.17,0.508
2016-09-15 01:57:00,1938E-3,5C000000,-0723,0824,12222,032.3,045.6,0.451,745.0,01.17,0.508
2016-09-15 01:58:00,1985E-3,5C000000,-0723,0824,12249,032.3,045.6,0.450,745.1,01.17,0.508
2016-09-15 01:59:00,1918E-3,5C000000,-0723,0824,12327,032.3,045.6,0.450,745.0,01.17,0.508
2016-09-15 02:00:00,1820E-3,5C000000,-0723,0825,12210,032.3,045.6,0.450,745.1,01.17,0.508
2016-09-15 02:01:00,1859E-3,5C000000,-0723,0824,12243,032.2,045.6,0.450,745.1,01.17,0.508
2016-09-15 02:02:00,1876E-3,5C000000,-0723,0825,12172,032.2,045.6,0.451,745.1,01.17,0.508
2016-09-15 02:03:00,1856E-3,5C000000,-0723,0825,12380,032.2,045.6,0.451,745.1,01.17,0.508
2016-09-15 02:04:00,2056E-3,5C000000,-0723,0824,12197,032.2,045.6,0.450,745.1,01.17,0.508
2016-09-15 02:05:00,1937E-3,5C000000,-0723,0825,12220,032.2,045.6,0.450,745.1,01.17,0.508
2016-09-15 02:06:00,1827E-3,5C000000,-0723,0825,12292,032.2,045.6,0.451,745.1,01.17,0.508
2016-09-15 02:07:00,1832E-3,5C000000,-0723,0824,12284,032.2,045.6,0.451,745.1,01.17,0.508
2016-09-15 02:08:00,1891E-3,5C000000,-0723,0825,12383,032.2,045.6,0.450,745.1,01.17,0.508
2016-09-15 02:09:00,1815E-3,5C000000,-0723,0824,12195,032.2,045.6,0.450,745.1,01.17,0.508
2016-09-15 02:10:00,1906E-3,5C000000,-0723,0824,12403,032.2,045.6,0.451,745.0,01.17,0.508
2016-09-15 02:11:00,1944E-3,5C000000,-0723,0824,12285,032.2,045.6,0.451,745.0,01.17,0.508
2016-09-15 02:12:00,1976E-3,5C000000,-0723,0825,12326,032.2,045.6,0.450,745.0,01.17,0.508
2016-09-15 02:13:00,1914E-3,5C000000,-0723,0824,12251,032.2,045.6,0.451,745.0,01.17,0.508
2016-09-15 02:14:00,1830E-3,5C000000,-0723,0824,12011,032.1,045.6,0.450,745.0,01.17,0.508
2016-09-15 02:15:00,1859E-3,5C000000,-0723,0824,12342,032.1,045.6,0.451,745.0,01.17,0.508
2016-09-15 02:16:00,1811E-3,5C000000,-0723,0824,12286,032.1,045.6,0.450,745.0,01.17,0.508
2016-09-15 02:17:00,1750E-3,5C000000,-0723,0824,12272,032.1,045.6,0.451,745.0,01.17,0.508
2016-09-15 02:18:00,1880E-3,5C000000,-0723,0823,12250,032.0,045.6,0.450,745.1,01.17,0.508
2016-09-15 02:19:00,1905E-3,5C000000,-0723,0825,12226,032.0,045.6,0.451,745.3,01.17,0.508
2016-09-15 02:20:00,1838E-3,5C000000,-0723,0824,12267,032.1,045.6,0.451,745.3,01.17,0.508
2016-09-15 02:21:00,1884E-3,5C000000,-0723,0824,12333,031.9,045.6,0.451,745.4,01.17,0.508
2016-09-15 02:22:00,2016E-3,5C000000,-0723,0825,12306,031.7,045.6,0.451,745.4,01.17,0.508
2016-09-15 02:23:00,1909E-3,5C000000,-0723,0824,12143,031.7,045.6,0.451,745.4,01.17,0.508
2016-09-15 02:24:00,1865E-3,5C000000,-0723,0823,12187,031.6,045.6,0.451,745.4,01.17,0.508
2016-09-15 02:25:00,1916E-3,5C000000,-0723,0823,12160,031.5,045.5,0.451,745.5,01.17,0.508
2016-09-15 02:26:00,1906E-3,5C000000,-0723,0823,12181,031.4,045.6,0.451,745.5,01.17,0.508
2016-09-15 02:27:00,1996E-3,5C000000,-0723,0824,12319,031.3,045.6,0.451,745.5,01.17,0.508
2016-09-15 02:28:00,1839E-3,5C000000,-0723,0823,12152,031.3,045.6,0.451,745.5,01.17,0.508
2016-09-15 02:29:00,1778E-3,5C000000,-0723,0824,12231,031.2,045.6,0.451,745.5,01.17,0.508
2016-09-15 02:30:00,1805E-3,5C000000,-0723,0824,12255,031.1,045.5,0.451,745.6,01.17,0.508
2016-09-15 02:31:00,1802E-3,5C000000,-0723,0823,12229,031.0,045.5,0.451,745.6,01.17,0.508
2016-09-15 02:32:00,1902E-3,5C000000,-0723,0824,12262,030.9,045.6,0.451,745.5,01.17,0.508
2016-09-15 02:33:00,1931E-3,5C000000,-0723,0824,12275,030.9,045.6,0.452,745.6,01.17,0.508
2016-09-15 02:34:00,1776E-3,5C000000,-0723,0824,12289,030.8,045.5,0.452,745.6,01.17,0.508
2016-09-15 02:35:00,1893E-3,5C000000,-0723,0824,12227,030.8,045.6,0.452,745.3,01.17,0.508
2016-09-15 02:36:00,1760E-3,5C000000,-0723,0824,12261,030.7,045.5,0.451,745.2,01.17,0.508
2016-09-15 02:37:00,1838E-3,5C000000,-0723,0824,12232,030.7,045.5,0.452,745.2,01.17,0.508
2016-09-15 02:38:00,1717E-3,5C000000,-0723,0822,12321,030.6,045.5,0.452,745.3,01.17,0.508
2016-09-15 02:39:00,1758E-3,5C000000,-0723,0823,12329,030.6,045.6,0.452,745.3,01.17,0.508
2016-09-15 02:40:00,1865E-3,5C000000,-0723,0823,12315,030.6,045.6,0.452,745.2,01.17,0.508
2016-09-15 02:41:00,1732E-3,5C000000,-0723,0823,12228,030.5,045.6,0.452,745.4,01.17,0.508
2016-09-15 02:42:00,1738E-3,5C000000,-0723,0823,12230,030.5,045.5,0.452,745.3,01.17,0.508
2016-09-15 02:43:00,1848E-3,5C000000,-0723,0823,12214,030.5,045.5,0.451,745.4,01.17,0.508
2016-09-15 02:44:00,1699E-3,5C000000,-0723,0823,12336,030.4,045.5,0.452,745.3,01.17,0.508
2016-09-15 02:45:00,1672E-3,5C000000,-0723,0823,12208,030.4,045.5,0.452,745.4,01.17,0.508
2016-09-15 02:46:00,1779E-3,5C000000,-0723,0822,12129,030.4,045.5,0.452,745.3,01.17,0.508
2016-09-15 02:47:00,1792E-3,5C000000,-0723,0823,12177,030.3,045.5,0.452,745.3,01.17,0.508
2016-09-15 02:48:00,1682E-3,5C000000,-0723,0824,12261,030.4,045.5,0.452,745.4,01.17,0.508
2016-09-15 02:49:00,1693E-3,5C000000,-0723,0823,12332,030.4,045.5,0.452,745.4,01.17,0.508
2016-09-15 02:50:00,1824E-3,5C000000,-0723,0824,12163,030.3,045.5,0.452,745.7,01.17,0.508
2016-09-15 02:51:00,1827E-3,5C000000,-0723,0823,12146,030.3,045.5,0.452,745.6,01.17,0.508
2016-09-15 02:52:00,1765E-3,5C000000,-0723,0824,12035,030.3,045.5,0.452,745.2,01.17,0.508
2016-09-15 02:53:00,1776E-3,5C000000,-0723,0823,12241,030.2,045.5,0.453,745.2,01.17,0.508
2016-09-15 02:54:00,1787E-3,5C000000,-0723,0823,12273,030.3,045.5,0.453,745.2,01.17,0.508
2016-09-15 02:55:00,1832E-3,5C000000,-0723,0823,12299,030.2,045.5,0.453,745.2,01.17,0.508
2016-09-15 02:56:00,1747E-3,5C000000,-0723,0822,12306,030.3,045.5,0.453,745.2,01.17,0.508
2016-09-15 02:57:00,1869E-3,5C000000,-0723,0824,12170,030.3,045.5,0.452,745.3,01.17,0.508
2016-09-15 02:58:00,1809E-3,5C000000,-0723,0823,12245,030.2,045.5,0.453,745.2,01.17,0.508
2016-09-15 02:59:00,1701E-3,5C000000,-0723,0823,12178,030.2,045.5,0.453,745.6,01.17,0.508
2016-09-15 03:00:00,1898E-3,5C000000,-0723,0823,12274,030.2,045.5,0.454,745.6,01.17,0.508
2016-09-15 03:01:00,1725E-3,5C000000,-0723,0824,12357,030.2,045.5,0.453,745.6,01.17,0.508
2016-09-15 03:02:00,1678E-3,5C000000,-0723,0823,12229,030.2,045.5,0.453,745.7,01.17,0.508
2016-09-15 03:03:00,1858E-3,5C000000,-0723,0824,12336,030.2,045.5,0.453,745.6,01.17,0.508
2016-09-15 03:04:00,1811E-3,5C000000,-0723,0822,12227,030.2,045.5,0.453,745.6,01.17,0.508
2016-09-15 03:05:00,1812E-3,5C000000,-0723,0822,12222,030.2,045.5,0.453,745.2,01.17,0.508
2016-09-15 03:06:00,1828E-3,5C000000,-0723,0823,12342,030.2,045.5,0.453,745.2,01.17,0.508
2016-09-15 03:07:00,1931E-3,5C000000,-0723,0823,12275,030.2,045.5,0.453,745.3,01.17,0.508
2016-09-15 03:08:00,1789E-3,5C000000,-0723,0823,12129,030.2,045.5,0.452,745.3,01.17,0.508
2016-09-15 03:09:00,1752E-3,5C000000,-0723,0823,12236,030.2,045.5,0.453,745.3,01.17,0.508
2016-09-15 03:10:00,1860E-3,5C000000,-0723,0823,12222,030.2,045.5,0.453,745.3,01.17,0.508
2016-09-15 03:11:00,1881E-3,5C000000,-0723,0824,12252,030.2,045.5,0.452,745.3,01.17,0.508
2016-09-15 03:12:00,1883E-3,5C000000,-0723,0823,12181,030.2,045.5,0.453,745.3,01.17,0.508
2016-09-15 03:13:00,1727E-3,5C000000,-0723,0824,12079,030.2,045.5,0.453,745.3,01.17,0.508
2016-09-15 03:14:00,1899E-3,5C000000,-0723,0823,12200,030.1,045.5,0.453,745.2,01.17,0.508
2016-09-15 03:15:00,1742E-3,5C000000,-0723,0823,12165,030.1,045.5,0.452,745.2,01.17,0.508
2016-09-15 03:16:00,1784E-3,5C000000,-0723,0822,12236,030.1,045.5,0.453,745.1,01.17,0.508
2016-09-15 03:17:00,1785E-3,5C000000,-0723,0823,12263,030.1,045.5,0.453,745.2,01.17,0.508
2016-09-15 03:18:00,1869E-3,5C000000,-0723,0823,12279,030.0,045.5,0.453,745.2,01.17,0.508
2016-09-15 03:19:00,1893E-3,5C000000,-0723,0823,12192,029.9,045.5,0.452,745.0,01.17,0.508
2016-09-15 03:20:00,1835E-3,5C000000,-0723,0824,12221,029.9,045.5,0.453,745.2,01.17,0.508
2016-09-15 03:21:00,1699E-3,5C000000,-0723,0823,12184,029.9,045.5,0.453,745.2,01.17,0.508
2016-09-15 03:22:00,1956E-3,5C000000,-0723,0823,12226,029.8,045.5,0.453,745.2,01.17,0.508
2016-09-15 03:23:00,1840E-3,5C000000,-0723,0823,12256,029.8,045.5,0.453,745.2,01.17,0.508
2016-09-15 03:24:00,1801E-3,5C000000,-0723,0823,12255,029.8,045.5,0.453,745.2,01.17,0.508
2016-09-15 03:25:00,1935E-3,5C000000,-0723,0823,12295,029.7,045.5,0.454,745.3,01.17,0.508
2016-09-15 03:26:00,1794E-3,5C000000,-0723,0823,12194,029.7,045.5,0.453,745.2,01.17,0.508
2016-09-15 03:27:00,1779E-3,5C000000,-0723,0823,12120,029.7,045.5,0.453,745.3,01.17,0.508
2016-09-15 03:28:00,1889E-3,5C000000,-0723,0824,12316,029.7,045.5,0.454,745.2,01.17,0.508
2016-09-15 03:29:00,1829E-3,5C000000,-0723,0823,12258,029.7,045.5,0.453,745.2,01.17,0.508
2016-09-15 03:30:00,1826E-3,5C000000,-0723,0824,12214,029.7,045.5,0.453,745.2,01.17,0.508
2016-09-15 03:31:00,1801E-3,5C000000,-0723,0823,12264,029.7,045.5,0.454,745.2,01.17,0.508
2016-09-15 03:32:00,1927E-3,5C000000,-0723,0823,12255,029.7,045.5,0.453,745.2,01.17,0.508
2016-09-15 03:33:00,1685E-3,5C000000,-0723,0823,12202,029.6,045.5,0.454,745.2,01.17,0.508
2016-09-15 03:34:00,1753E-3,5C000000,-0723,0823,12315,029.6,045.5,0.454,745.2,01.17,0.508
2016-09-15 03:35:00,1867E-3,5C000000,-0723,0823,12337,029.6,045.5,0.453,745.2,01.17,0.508
2016-09-15 03:36:00,1754E-3,5C000000,-0723,0823,12316,029.7,045.5,0.454,745.2,01.17,0.508
2016-09-15 03:37:00,1751E-3,5C000000,-0723,0823,12358,029.6,045.5,0.453,745.2,01.17,0.508
2016-09-15 03:38:00,1737E-3,5C000000,-0723,0823,12202,029.6,045.5,0.454,745.2,01.17,0.508
2016-09-15 03:39:00,1925E-3,5C000000,-0723,0823,12297,029.6,045.5,0.453,745.2,01.17,0.508
2016-09-15 03:40:00,1932E-3,5C000000,-0723,0823,12296,029.6,045.5,0.454,745.2,01.17,0.508
2016-09-15 03:41:00,1815E-3,5C000000,-0723,0823,12158,029.6,045.5,0.454,745.2,01.17,0.508
2016-09-15 03:42:00,1837E-3,5C000000,-0723,0823,12371,029.6,045.5,0.453,745.2,01.17,0.508
2016-09-15 03:43:00,1657E-3,5C000000,-0723,0823,12349,029.6,045.5,0.454,745.2,01.17,0.508
2016-09-15 03:44:00,1906E-3,5C000000,-0723,0823,12214,029.6,045.5,0.453,745.2,01.17,0.508
2016-09-15 03:45:00,1800E-3,5C000000,-0723,0823,12252,029.6,045.5,0.454,745.1,01.17,0.508
2016-09-15 03:46:00,1903E-3,5C000000,-0723,0823,12233,029.6,045.5,0.453,745.1,01.17,0.508
2016-09-15 03:47:00,1765E-3,5C000000,-0723,0823,12199,029.6,045.5,0.454,745.1,01.17,0.508
2016-09-15 03:48:00,1721E-3,5C000000,-0723,0823,12221,029.6,045.5,0.453,745.2,01.17,0.508
2016-09-15 03:49:00,1883E-3,5C000000,-0723,0822,12263,029.6,045.5,0.454,745.1,01.17,0.508
2016-09-15 03:50:00,1936E-3,5C000000,-0723,0823,12324,029.5,045.5,0.454,745.1,01.17,0.508
2016-09-15 03:51:00,1755E-3,5C000000,-0723,0823,12198,029.5,045.5,0.453,745.2,01.17,0.508
2016-09-15 03:52:00,1990E-3,5C000000,-0723,0823,12413,029.5,045.5,0.454,745.1,01.17,0.508
2016-09-15 03:53:00,1724E-3,5C000000,-0723,0822,12268,029.5,045.5,0.453,745.1,01.17,0.508
2016-09-15 03:54:00,1932E-3,5C000000,-0723,0823,12185,029.5,045.5,0.454,745.2,01.17,0.508
2016-09-15 03:55:00,1634E-3,5C000000,-0723,0824,12312,029.5,045.5,0.453,745.2,01.17,0.508
2016-09-15 03:56:00,1755E-3,5C000000,-0723,0822,12298,029.4,045.5,0.454,745.0,01.17,0.508
2016-09-15 03:57:00,1756E-3,5C000000,-0723,0822,12275,029.4,045.5,0.454,745.3,01.17,0.508
2016-09-15 03:58:00,1761E-3,5C000000,-0723,0823,12374,029.3,045.5,0.454,745.2,01.17,0.508
2016-09-15 03:59:00,1750E-3,5C000000,-0723,0823,12278,029.3,045.5,0.454,745.2,01.17,0.508
2016-09-15 04:00:00,1751E-3,5C000000,-0723,0823,12329,029.3,045.5,0.454,745.2,01.17,0.508
2016-09-15 04:01:00,1673E-3,5C000000,-0723,0822,12203,029.3,045.5,0.454,745.2,01.17,0.508
2016-09-15 04:02:00,1805E-3,5C000000,-0723,0823,12127,029.3,045.5,0.453,745.2,01.17,0.508
2016-09-15 04:03:00,1717E-3,5C000000,-0723,0823,12116,029.2,045.5,0.454,745.3,01.17,0.508
2016-09-15 04:04:00,1641E-3,5C000000,-0723,0823,12359,029.2,045.5,0.454,745.2,01.17,0.508
2016-09-15 04:05:00,1874E-3,5C000000,-0723,0823,12275,029.2,045.5,0.454,745.2,01.17,0.508
2016-09-15 04:06:00,1884E-3,5C000000,-0723,0822,12236,029.1,045.5,0.454,745.1,01.17,0.508
2016-09-15 04:07:00,1861E-3,5C000000,-0723,0822,12312,029.1,045.5,0.454,745.2,01.17,0.508
2016-09-15 04:08:00,1711E-3,5C000000,-0723,0823,12207,029.1,045.5,0.454,745.2,01.17,0.508
2016-09-15 04:09:00,1716E-3,5C000000,-0723,0823,12246,029.1,045.5,0.454,745.2,01.17,0.508
2016-09-15 04:10:00,1774E-3,5C000000,-0723,0823,12215,029.1,045.5,0.454,745.5,01.17,0.508
2016-09-15 04:11:00,1738E-3,5C000000,-0723,0823,12190,029.1,045.5,0.454,745.6,01.17,0.508
2016-09-15 04:12:00,1849E-3,5C000000,-0723,0823,12326,029.1,045.5,0.455,745.6,01.17,0.508
2016-09-15 04:13:00,1724E-3,5C000000,-0723,0823,12375,029.1,045.5,0.454,745.6,01.17,0.508
2016-09-15 04:14:00,1734E-3,5C000000,-0723,0823,12254,029.1,045.5,0.455,745.7,01.17,0.508
2016-09-15 04:15:00,1809E-3,5C000000,-0723,0823,12346,029.1,045.5,0.454,745.6,01.17,0.508
2016-09-15 04:16:00,1908E-3,5C000000,-0723,0822,12344,029.1,045.5,0.455,745.6,01.17,0.508
2016-09-15 04:17:00,1755E-3,5C000000,-0723,0823,12303,029.1,045.5,0.454,745.6,01.17,0.508
2016-09-15 04:18:00,1697E-3,5C000000,-0723,0823,12294,029.1,045.5,0.455,745.7,01.17,0.508
2016-09-15 04:19:00,1839E-3,5C000000,-0723,0823,12344,029.1,045.5,0.454,745.7,01.17,0.508
2016-09-15 04:20:00,1761E-3,5C000000,-0723,0822,12338,029.2,045.5,0.454,745.6,01.17,0.508